Location: Unspecified
(0.0000°N, 0.0000°E)
Time: 06:03:38
(UTC+00:00)

Tiros 1 - Visible Passes

Search period start: 05 July 2015 00:00
Search period end: 15 July 2015 00:00
Orbit: 632 x 665 km, 48.4° (Epoch: 04 July)

Date Brightness Start Highest point End Pass type
(mag) Time Alt. Az. Time Alt. Az. Time Alt. Az.
05 Jul 7.1 18:23:34 10° SW 18:28:15 78° SE 18:32:53 10° NE visible
06 Jul 10.5 04:57:38 10° NNE 04:59:04 11° NE 05:00:48 10° ENE visible
06 Jul 9.3 18:50:39 10° WSW 18:54:47 30° NW 18:58:47 10° N visible
07 Jul 8.9 05:21:26 10° NNW 05:25:46 37° NE 05:30:11 10° ESE visible
08 Jul 10.6 04:09:33 10° NE 04:10:00 10° NE 04:10:46 10° ENE visible
09 Jul 8.9 04:32:30 10° NNW 04:36:42 33° NE 04:41:02 10° ESE visible
10 Jul 7.1 04:58:32 10° NW 05:03:14 70° SW 05:07:58 10° SSE visible
11 Jul 8.9 03:46:20 26° NNE 03:47:39 30° NE 03:51:51 10° ESE visible
11 Jul 8.4 05:26:12 10° W 05:29:49 21° SW 05:33:22 10° S visible
12 Jul 7.9 04:15:46 42° SSE 04:15:46 42° SSE 04:18:56 10° SE visible
13 Jul 9.3 04:43:52 13° S 04:43:52 13° S 04:44:28 10° S visible
